Tracking 34138 objects as of 17-May-2026
HD Live streaming from Space Station
objects crossing your sky now

STARLINK-5746

Track STARLINK-5746 now!
10-day predictions
STARLINK-5746 is classified as:


NORAD ID: 56926
Int'l Code: 2023-083BC
Perigee: 489.5 km
Apogee: 490.9 km
Inclination: 43.0 °
Period: 94.3 minutes
Semi major axis: 6861 km
RCS: Unknown
Launch date: June 12, 2023
Source: United States (US)
Launch site: AIR FORCE EASTERN TEST RANGE (AFETR)
Your satellite tracking list
Your tracking list is empty




NASA's NSSDC Master Catalog

Two Line Element Set (TLE):
1 56926U 23083BC  26136.79241692 -.00000210  00000-0  19004-5 0  9995
2 56926  43.0063  46.0625 0001052 272.2561  87.8170 15.27576459162216
Source of the keplerian elements: AFSPC